星链-34542(STARLINK-34542)

导读

STARLINK-34542是美国于2025年10月7日发射的星链卫星,隶属于SpaceX公司的星链星座项目。星链项目旨在构建全球卫星互联网星座,为全球提供高速低延迟宽带网络服务,覆盖偏远地区等网络服务空白区域,该卫星的发射推进了星链星座的部署进程,进一步完善星座网络布局。

Basic Information
目录编号:
65890
目录名称:
STARLINK-34542
国际标识:
2025-224J
轨道中心:
EARTH
卫星名称:
星链-34542
卫星全名:
星链-34542(STARLINK-34542)
卫星状态:
在轨 (已飞行332 天)
发射日期:
2025-10-07 UTC
国别 :
美国 (US)
星等 :
--
Orbit Information
数据来源 国际轨道数据
星历时间: 2026-09-03T18:30:57+0800
18小时前
查看轨道信息
半长轴: 6840.812km
偏心率: 0.0001515
轨道倾角: 53.160°
近地点辐角 65.703°
升交点赤经 265.360°
平近点角 294.413°
近地点: 461.638km
远地点: 463.712km
周期: 93.847分钟
每日圈数: 15.344096
Detailed Information
固有亮度:
5
最大亮度:
2.5
卫星平台:
Starlink V1.0
覆盖范围:
全球
运营商:
太空探索技术公司
运营商所在国:
美国
制造商(研发单位):
太空探索技术公司
制造商所在国:
美国
使用方式:
暂无
Satellite Introduction
Starlink 计划是 SpaceX 推出的全球卫星互联网项目,通过发射低轨道卫星,为全球尤其是偏远地区提供高速、低延迟的互联网服务。自 2019 年起,Starlink 已部署数千颗卫星,旨在缩小全球数字鸿沟,推动互联网普及。该项目还为军事、航空等行业提供通信支持,带来广泛经济效益。
2D Orbit Map
3D Orbit Map
Orbit Altitude Analysis Chart
Orbit Inclination Analysis Chart
Orbit Comprehensive Analysis Chart
View Comprehensive Chart
Conjunction Data List
Event ID Objects TCA Miss Dist (km) Collision Risk Probability Collision Risk Index (CRI) Action
CDM_260904-105105-397606-589021
2026-09-04T
10:51:18+0000
0.105 km
中距离
1.139088E-3 极高风险 0.96
CDM_260905-071005-397606-589021
2026-09-05T
07:10:37+0000
0.406 km
远距离
2.77604E-4 高风险 0.84
CDM_260905-084405-397606-589021
2026-09-05T
08:44:25+0000
0.539 km
远距离
1.494102E-4 高风险 0.78
CDM_260904-122505-397606-589021
2026-09-04T
12:25:06+0000
0.744 km
远距离
6.098113E-5 中风险 0.71
CDM_260904-091705-397606-589021
2026-09-04T
09:17:31+0000
0.763 km
远距离
5.636061E-5 中风险 0.7
CDM_260905-003106-584606-589021
2026-09-05T
00:31:45+0000
0.799 km
远距离
3.530599E-5 中风险 0.66
CDM_260904-124806-584606-589021
2026-09-04T
12:48:19+0000
0.878 km
远距离
2.580338E-5 中风险 0.63
CDM_260905-053605-397606-589021
2026-09-05T
05:36:50+0000
0.990 km
远距离
2.385638E-5 中风险 0.63
CDM_260904-135805-397606-589021
2026-09-04T
13:58:54+0000
1.321 km
极远距离
8.767E-6 低风险 0.54
CDM_260905-040305-397606-589021
2026-09-05T
04:03:02+0000
1.516 km
极远距离
5.539561E-6 低风险 0.5